Stations météo

réclame
Mon MeteoGroup
Katterjakk A, Suède (2019): Température de l'air & dewpoint: 10.07.2019 04:00:00 - 16.07.2019 04:00:00 (CEST)Katterjakk A, Suède (2019): Vitesse du vent & gusts: 10.07.2019 04:00:00 - 16.07.2019 04:00:00 (CEST)Katterjakk A, Suède (2019): Direction du vent: 10.07.2019 04:00:00 - 16.07.2019 04:00:00 (CEST)Katterjakk A, Suède (2019): reduced air pressure: 10.07.2019 04:00:00 - 16.07.2019 04:00:00 (CEST)Katterjakk A, Suède (2019): visibility: 10.07.2019 04:00:00 - 16.07.2019 04:00:00 (CEST)Katterjakk A, Suède (2019): Quantités de précipitations: 10.07.2019 04:00:00 - 16.07.2019 04:00:00 (CEST)
Date & Time tt [°C] td [°C] ff [km/h] ff [knt] fx [km/h] fx [knt] dd ppp [hPa] vv [km] rr [mm]
16.07.2019 04:00:00 7,0 5,1 6 3 12 6 NNW 1015,7 50 0,0
16.07.2019 03:00:00 7,2 5,0 4 2 7 4 WNW 1015,5 50 0,0
16.07.2019 02:00:00 7,0 5,6 3 2 6 4 SSW 1015,5 50 0,0
16.07.2019 01:00:00 7,6 4,9 3 2 12 7 W 1015,3 50 0,0
16.07.2019 00:00:00 7,6 5,1 10 5 14 7 WSW 1015,2 50 0,0
15.07.2019 23:00:00 7,9 5,7 3 1 6 3 W 1014,9 50 0,0
15.07.2019 22:00:00 8,3 5,9 0 0 5 3 N 1014,5 50 0,0
15.07.2019 21:00:00 8,7 5,4 0 0 4 2 N 1014,3 48 0,0
15.07.2019 20:00:00 8,8 5,7 0 0 4 2 N 1014,2 50 0,0
15.07.2019 19:00:00 8,7 6,0 3 2 8 4 S 1014,1 50 0,0
15.07.2019 18:00:00 8,4 6,4 4 2 7 4 S 1014,2 42 0,0
15.07.2019 17:00:00 7,8 6,1 4 2 8 4 E 1014,2 15 0,2
15.07.2019 16:00:00 9,2 5,7 0 0 6 3 N 1013,8 50 0,0
15.07.2019 15:00:00 8,6 5,5 3 2 10 5 SE 1013,8 48 0,0
15.07.2019 14:00:00 8,5 6,1 5 3 9 5 E 1013,7 47 0,0
15.07.2019 13:00:00 7,8 6,4 4 2 6 3 S 1013,7 24 0,0
15.07.2019 12:00:00 7,1 6,2 4 2 10 5 N 1014,0 2,1 0,3
15.07.2019 11:00:00 7,4 6,3 8 5 11 6 NE 1013,8 6 0,0
15.07.2019 10:00:00 7,9 6,0 5 3 10 6 NNE 1013,5 11 0,0
15.07.2019 09:00:00 8,0 5,8 7 4 12 6 N 1013,2 31 0,0
15.07.2019 08:00:00 7,8 5,8 4 2 9 5 N 1013,4 43 0,0
15.07.2019 07:00:00 7,4 6,0 4 2 8 4 E 1013,5 16 0,0
15.07.2019 06:00:00 7,2 6,1 3 2 12 6 ENE 1013,6 6 0,0
15.07.2019 05:00:00 7,6 6,1 6 3 11 6 NNW 1013,4 36 0,0
15.07.2019 04:00:00 7,7 6,0 6 4 11 6 NNW 1013,4 50 0,0
15.07.2019 03:00:00 7,8 5,9 8 4 11 6 NW 1013,5 50 0,0
15.07.2019 02:00:00 8,1 5,9 5 3 12 7 NW 1013,6 50 0,0
15.07.2019 01:00:00 8,3 5,8 7 4 12 6 NNW 1013,7 50 0,0
15.07.2019 00:00:00 8,5 5,6 6 4 11 6 N 1013,8 50 0,0
14.07.2019 23:00:00 8,8 5,5 4 2 14 8 ESE 1013,8 50 0,0
14.07.2019 22:00:00 9,3 5,1 7 4 16 9 WNW 1013,6 45 0,0
14.07.2019 21:00:00 9,7 5,3 6 3 13 7 WNW 1013,6 50 0,0
14.07.2019 20:00:00 9,9 5,3 7 4 15 8 W 1013,8 50 0,0
14.07.2019 19:00:00 10,3 5,3 6 4 19 11 W 1014,0 50 0,0
14.07.2019 18:00:00 10,7 5,2 10 6 18 10 NW 1014,0 50 0,0
14.07.2019 17:00:00 11,0 5,5 11 6 22 12 NW 1014,0 43 0,0
14.07.2019 16:00:00 11,4 5,9 13 7 22 12 NW 1014,0 46 0,0
14.07.2019 15:00:00 10,5 5,5 11 6 23 13 NW 1014,3 48 0,0
14.07.2019 14:00:00 10,8 6,4 14 8 26 14 NNW 1014,2 50 0,0
14.07.2019 13:00:00 10,4 5,6 15 8 21 12 NNW 1014,5 50 0,0
14.07.2019 12:00:00 9,9 6,1 11 6 18 10 NNW 1014,9 50 0,0
14.07.2019 11:00:00 9,2 6,1 8 4 17 9 NNW 1015,2 45 0,0
14.07.2019 10:00:00 8,5 6,6 9 5 17 9 NW 1015,4 50 0,0
14.07.2019 09:00:00 8,8 6,9 11 6 17 9 N 1015,2 50 0,0
14.07.2019 08:00:00 7,8 6,7 10 5 17 9 NNW 1015,3 30 0,0
14.07.2019 07:00:00 7,9 7,0 10 6 18 10 NW 1015,4 37 0,0
14.07.2019 06:00:00 8,2 7,0 5 3 14 8 NNE 1015,3 50 0,0
14.07.2019 05:00:00 8,2 6,8 4 2 9 5 NNE 1015,4 50 0,0
14.07.2019 04:00:00 8,1 7,3 4 2 14 7 W 1015,3 13 0,0
14.07.2019 03:00:00 8,6 7,7 3 1 10 5 WSW 1015,3 49 0,0
14.07.2019 02:00:00 9,0 7,4 7 4 18 10 W 1015,2 50 0,0
14.07.2019 01:00:00 8,9 7,8 7 4 16 9 W 1015,3 24 0,0
14.07.2019 00:00:00 9,1 8,2 8 4 19 10 NW 1015,4 12 0,0
13.07.2019 23:00:00 9,4 8,2 9 5 15 8 NW 1015,4 15 0,0
13.07.2019 22:00:00 9,4 8,3 7 4 18 10 NW 1015,4 16 0,0
13.07.2019 21:00:00 9,5 8,6 11 6 16 9 WSW 1015,3 8 0,0
13.07.2019 20:00:00 10,0 8,4 8 5 19 10 W 1015,1 15 0,0
13.07.2019 19:00:00 10,2 8,5 11 6 24 13 WSW 1015,0 16 0,0
13.07.2019 18:00:00 10,9 8,1 16 9 29 16 NW 1014,8 46 0,0
13.07.2019 17:00:00 12,1 8,6 15 8 28 15 WNW 1014,4 38 0,0
13.07.2019 16:00:00 13,6 8,4 17 9 29 16 WNW 1013,7 40 0,0
13.07.2019 15:00:00 14,4 8,8 17 9 29 16 WNW 1013,3 36 0,0
13.07.2019 14:00:00 14,1 8,1 19 11 30 16 NW 1013,2 37 0,0
13.07.2019 13:00:00 13,9 8,1 16 8 26 14 NW 1013,1 38 0,0
13.07.2019 12:00:00 14,0 8,2 14 8 22 12 NW 1013,2 43 0,0
13.07.2019 11:00:00 14,6 7,2 12 6 18 10 NW 1013,0 44 0,0
13.07.2019 10:00:00 14,4 4,4 5 3 12 6 N 1013,0 50 0,0
13.07.2019 09:00:00 13,9 5,0 7 4 18 10 N 1013,0 48 0,0
13.07.2019 08:00:00 13,2 4,6 9 5 15 8 E 1013,2 40 0,0
13.07.2019 07:00:00 12,0 5,2 9 5 13 7 ENE 1013,4 50 0,0
13.07.2019 06:00:00 10,6 7,5 5 3 7 4 N 1014,1 45 0,0
13.07.2019 05:00:00 9,8 9,2 0 0 5 3 N 1014,2 41 0,0
13.07.2019 04:00:00 8,6 8,5 3 2 9 5 N 1014,6 22 0,0
13.07.2019 03:00:00 6,4 6,3 3 2 7 4 SW 1015,0 0,2 0,0
13.07.2019 02:00:00 7,5 7,4 4 2 - - SSW 1014,5 0,1 0,0
13.07.2019 01:00:00 8,1 8,0 5 3 8 5 SSW 1014,4 0,1 0,0
13.07.2019 00:00:00 8,1 7,8 4 2 7 4 SSW 1014,4 0,1 0,0
12.07.2019 23:00:00 9,3 8,1 4 2 10 5 SSW 1013,8 20 0,0
12.07.2019 22:00:00 11,9 9,1 9 5 18 10 NW 1012,9 42 0,0
12.07.2019 21:00:00 13,3 9,4 12 6 18 10 NW 1012,3 45 0,0
12.07.2019 20:00:00 13,7 9,3 13 7 19 10 NW 1011,8 44 0,0
12.07.2019 19:00:00 15,3 9,2 13 7 19 11 NNW 1011,5 43 0,0
12.07.2019 18:00:00 15,7 9,4 13 7 22 12 NNW 1011,3 48 0,0
12.07.2019 17:00:00 15,7 8,9 13 7 24 13 NW 1011,4 34 0,0
12.07.2019 16:00:00 15,9 8,6 14 8 24 13 NW 1011,3 37 0,0
12.07.2019 15:00:00 15,8 9,2 15 8 27 14 NW 1011,2 43 0,0
12.07.2019 14:00:00 15,5 8,5 16 9 25 14 NW 1011,2 35 0,0
12.07.2019 13:00:00 15,4 8,6 16 8 23 12 NW 1011,3 40 0,0
12.07.2019 12:00:00 15,5 8,7 13 7 18 10 NNW 1011,3 39 0,0
12.07.2019 11:00:00 15,5 7,8 9 5 14 8 N 1011,3 43 0,0
12.07.2019 10:00:00 14,2 7,5 10 6 17 9 NE 1011,8 35 0,0
12.07.2019 09:00:00 13,2 7,4 9 5 16 9 NNE 1012,1 37 0,0
12.07.2019 08:00:00 11,7 7,6 7 4 11 6 NNE 1012,5 40 0,0
12.07.2019 07:00:00 11,0 7,3 4 2 10 5 N 1012,6 45 0,0
12.07.2019 06:00:00 9,5 6,9 0 0 5 3 N 1012,9 49 0,0
12.07.2019 05:00:00 8,2 7,1 2 1 4 2 SSE 1013,1 37 0,0
12.07.2019 04:00:00 7,3 6,2 3 2 5 3 SSE 1013,3 47 0,0
12.07.2019 03:00:00 7,1 6,2 4 2 9 5 S 1013,3 38 0,0
12.07.2019 02:00:00 7,3 6,4 6 3 7 4 S 1013,2 43 0,0
12.07.2019 01:00:00 7,2 6,1 4 2 8 4 S 1013,3 44 0,0
12.07.2019 00:00:00 7,8 6,3 3 2 7 4 SSW 1013,2 45 0,0
11.07.2019 23:00:00 10,9 7,4 5 3 12 6 WNW 1012,5 50 0,0
11.07.2019 22:00:00 12,7 7,6 8 4 14 7 W 1011,8 42 0,0
11.07.2019 21:00:00 13,7 7,7 8 4 15 8 NW 1011,4 50 0,0
11.07.2019 20:00:00 14,7 8,0 10 6 18 10 WNW 1011,2 44 0,0
11.07.2019 19:00:00 15,3 7,8 10 6 21 12 NW 1011,2 47 0,0
11.07.2019 18:00:00 16,1 8,6 15 8 24 13 WNW 1011,0 45 0,0
11.07.2019 17:00:00 16,4 8,9 14 8 24 13 WNW 1010,9 44 0,0
11.07.2019 16:00:00 15,9 8,6 14 8 23 13 WNW 1011,1 39 0,0
11.07.2019 15:00:00 16,1 8,8 14 8 23 12 WNW 1011,1 42 0,0
11.07.2019 14:00:00 15,9 8,6 16 8 25 13 WNW 1011,1 36 0,0
11.07.2019 13:00:00 15,1 8,3 18 10 26 14 NW 1011,4 43 0,0
11.07.2019 12:00:00 15,8 8,3 14 8 25 13 NW 1011,6 35 0,0
11.07.2019 11:00:00 15,3 8,5 13 7 24 13 NW 1011,9 36 0,0
11.07.2019 10:00:00 15,2 8,0 11 6 21 11 W 1011,7 41 0,0
11.07.2019 09:00:00 12,7 8,0 12 6 18 10 WSW 1012,6 50 0,0
11.07.2019 08:00:00 10,9 8,5 16 8 22 12 NNW 1013,1 42 -
11.07.2019 07:00:00 11,1 8,5 12 6 16 9 NNW 1013,1 42 0,0
11.07.2019 06:00:00 10,7 8,5 7 4 15 8 NW 1013,3 42 0,0
11.07.2019 05:00:00 10,2 8,8 2 1 7 4 E 1013,7 36 0,0
11.07.2019 04:00:00 8,1 7,3 4 2 9 5 S 1014,5 26 0,0
11.07.2019 03:00:00 8,1 7,3 6 4 9 5 S 1014,8 31 0,0
11.07.2019 02:00:00 8,8 6,2 5 3 17 9 S 1014,7 50 0,0
11.07.2019 01:00:00 8,3 6,3 8 4 11 6 S 1015,0 50 0,0
11.07.2019 00:00:00 10,6 7,1 3 2 13 7 S 1014,6 50 0,0
10.07.2019 23:00:00 10,0 7,2 6 3 9 5 SSW 1014,9 49 0,0
10.07.2019 22:00:00 12,9 7,6 4 2 12 7 NW 1014,4 50 0,0
10.07.2019 21:00:00 14,9 7,4 4 2 10 5 NNE 1013,9 50 0,0
10.07.2019 20:00:00 16,1 7,3 5 3 14 7 ENE 1013,9 47 0,0
10.07.2019 19:00:00 15,7 7,5 6 3 17 9 N 1014,2 42 0,0
10.07.2019 18:00:00 16,2 6,9 10 5 19 11 ENE 1014,1 49 0,0
10.07.2019 17:00:00 16,8 6,3 12 6 21 11 ENE 1013,9 43 0,0
10.07.2019 16:00:00 17,3 5,3 12 7 19 10 E 1013,9 44 0,0
10.07.2019 15:00:00 17,2 3,8 9 5 15 8 NE 1014,1 45 0,0
10.07.2019 14:00:00 16,7 4,4 7 4 13 7 NNE 1014,5 45 0,0
10.07.2019 13:00:00 15,9 4,3 9 5 15 8 NNE 1014,7 46 0,0
10.07.2019 12:00:00 16,8 5,1 10 5 16 9 N 1014,5 41 0,0
10.07.2019 11:00:00 14,5 4,8 10 5 19 10 N 1015,2 46 0,0
10.07.2019 10:00:00 14,6 5,7 13 7 18 10 NNE 1015,4 45 0,0
10.07.2019 09:00:00 13,3 5,7 13 7 21 11 NE 1015,8 40 0,0
10.07.2019 08:00:00 12,9 5,3 10 5 - - NNE 1015,8 45 0,0
10.07.2019 07:00:00 12,0 5,2 8 5 16 9 NE 1016,3 50 0,0
10.07.2019 06:00:00 12,0 4,9 11 6 15 8 NE 1016,5 50 0,0
10.07.2019 05:00:00 11,5 3,8 6 4 11 6 E 1016,6 48 0,0
10.07.2019 04:00:00 9,8 3,5 5 3 11 6 SSW 1016,8 50 0,0

tt = Température de l'air
td = dewpoint
ff = Vitesse du vent
fx = gusts
dd = Direction du vent
ppp = reduced air pressure
vv = visibility
rr = Quantités de précipitations

stations d'obs. à proximité